Simultaneous Nadir Overpasses (SNOs) Predictions

Prediction of SNOs between GOES-14 and NOAA-20 Satellite Orbit:

Table of predicted SNOs for the next 14.0 days since TLE Epoch: 4/1/2023
Index Date Time (GOES-14) GOES-14 Lat,Lon NOAA-20 Lat,Lon Distance(km) Time Diff (sec)
1 04/01/2023 20:36:45 -0.16,-108.06 -0.04,-107.49 64.28 80
2 04/04/2023 08:39:51 0.17,-108.06 0.20,-108.24 20.40 80
3 04/05/2023 08:18:28 0.17,-108.06 -0.83,-103.71 496.08 80
4 04/06/2023 20:40:25 -0.17,-108.09 -0.37,-109.02 105.54 80
5 04/07/2023 20:24:22 -0.17,-108.10 0.66,-104.49 411.67 80
6 04/09/2023 08:46:10 0.17,-108.10 0.57,-109.75 189.44 80
7 04/10/2023 08:24:46 0.17,-108.09 -0.47,-105.23 326.62 80
8 04/11/2023 20:46:44 -0.17,-108.10 -0.71,-110.53 277.33 80
9 04/12/2023 20:30:39 -0.18,-108.10 0.27,-106.00 239.41 80
10 04/14/2023 08:52:29 0.18,-108.11 0.89,-111.27 360.83 80
